Location: Chiroubles
(46.1812°N, 4.6660°E)
Time: 02:27:58
(UTC+00:00)

Cosmos 1975 Rocket - Pass Details

Date: 15 August 2020
Orbit: 603 x 635 km, 82.5° (Epoch: 25 September)

Event Time Altitude Azimuth Distance (km) Brightness Sun altitude
Rises 22:21:47 0° 358° (N) 2,941 7.6 -27.2°
Reaches altitude 10° 22:24:12 10° 7° (N) 2,025 6.4 -27.4°
Enters shadow 22:27:18 31° 45° (NE) 1,110 4.5 -27.6°
